FW3187 Weather Reports


time (UTC)temp
F
wind
direction
speed
knots
gust
knots
rain 1hr
in
rain 24hr
in
rain mn
in
humidity
%
barometer
mb
20260906234524 78 190 11.3 20.0 0.00 0.00 0.00 10 1012.2
20260906234003 79 193 10.4 20.0 0.00 0.00 0.00 9 1012.2
20260906233526 78 205 5.2 15.6 0.00 0.00 0.00 9 1012.6
20260906233503 79 195 9.6 19.1 0.00 0.00 0.00 9 1012.4
20260906233047 78 204 7.0 18.2 0.00 0.00 0.00 9 1012.7
20260906233024 79 192 10.4 19.1 0.00 0.00 0.00 9 1012.4
20260906232606 78 196 12.2 19.1 0.00 0.00 0.00 9 1012.7
20260906232503 79 190 7.8 18.2 0.00 0.00 0.00 10 1012.4
20260906232003 79 193 7.0 14.8 0.00 0.00 0.00 11 1012.4
20260906231516 79 215 5.2 12.2 0.00 0.00 0.00 12 1012.7
20260906231503 79 200 7.8 17.4 0.00 0.00 0.00 12 1012.4
20260906231032 79 222 7.0 17.4 0.00 0.00 0.00 10 1012.9
20260906231003 79 199 9.6 17.4 0.00 0.00 0.00 10 1012.4
20260906230503 79 193 10.4 19.1 0.00 0.00 0.00 10 1012.4
20260906230058 78 180 11.3 19.1 0.00 0.00 0.00 10 1012.7
20260906230003 79 197 10.4 19.1 0.00 0.00 0.00 10 1012.4
20260906225503 79 204 10.4 19.1 0.00 0.00 0.00 9 1012.4
20260906225023 79 211 6.1 21.7 0.00 0.00 0.00 10 1012.5
20260906225003 79 208 10.4 18.2 0.00 0.00 0.00 8 1012.3
20260906224545 79 226 5.2 21.7 0.00 0.00 0.00 8 1012.7
20260906224503 79 204 9.6 21.7 0.00 0.00 0.00 8 1012.3
20260906224102 79 215 8.7 21.7 0.00 0.00 0.00 8 1012.6
20260906224003 80 192 11.3 21.7 0.00 0.00 0.00 9 1012.3
20260906223510 79 192 8.7 21.7 0.00 0.00 0.00 7 1012.7
20260906223503 80 196 12.2 20.9 0.00 0.00 0.00 7 1012.6
20260906223031 79 206 13.0 19.1 0.00 0.00 0.00 7 1012.7
20260906223003 80 198 11.3 19.1 0.00 0.00 0.00 7 1012.6
20260906222549 80 191 15.6 22.6 0.00 0.00 0.00 7 1012.8
20260906222503 80 195 12.2 22.6 0.00 0.00 0.00 7 1012.6
20260906222012 80 188 4.3 26.1 0.00 0.00 0.00 7 1013.0
20260906222003 80 198 13.0 26.1 0.00 0.00 0.00 7 1012.5
20260906221533 80 184 14.8 26.1 0.00 0.00 0.00 6 1012.9
20260906221503 81 194 12.2 26.1 0.00 0.00 0.00 7 1012.5
20260906221021 81 188 11.3 22.6 0.00 0.00 0.00 7 1012.7
20260906221003 81 184 13.0 24.3 0.00 0.00 0.00 7 1012.5
20260906220538 81 211 12.2 25.2 0.00 0.00 0.00 7 1013.0
20260906220503 82 180 12.2 25.2 0.00 0.00 0.00 7 1012.6
20260906220059 82 185 13.0 25.2 0.00 0.00 0.00 6 1012.9
20260906220003 82 190 10.4 25.2 0.00 0.00 0.00 5 1012.6
20260906215505 82 186 15.6 20.0 0.00 0.00 0.00 7 1013.1
20260906215503 82 197 10.4 20.0 0.00 0.00 0.00 7 1012.6
20260906215022 81 174 11.3 18.2 0.00 0.00 0.00 8 1012.8
20260906215003 82 185 10.4 20.9 0.00 0.00 0.00 8 1012.7
20260906214545 81 205 6.1 19.1 0.00 0.00 0.00 7 1012.8
20260906214503 82 181 12.2 22.6 0.00 0.00 0.00 6 1012.7
20260906214100 82 195 7.0 20.0 0.00 0.00 0.00 6 1012.9
20260906214024 82 181 13.0 24.3 0.00 0.00 0.00 7 1012.7
20260906213509 82 179 6.1 22.6 0.00 0.00 0.00 6 1013.0
20260906213503 82 196 13.0 24.3 0.00 0.00 0.00 6 1012.6
20260906213029 82 168 13.9 22.6 0.00 0.00 0.00 7 1013.0
20260906213003 82 210 11.3 24.3 0.00 0.00 0.00 7 1012.6
20260906212546 82 217 20.9 24.3 0.00 0.00 0.00 6 1012.9
20260906212503 82 201 11.3 24.3 0.00 0.00 0.00 8 1012.6
20260906212035 82 185 7.0 24.3 0.00 0.00 0.00 5 1012.9
20260906212003 82 189 11.3 23.5 0.00 0.00 0.00 5 1013.0
20260906211553 82 182 11.3 21.7 0.00 0.00 0.00 9 1013.1
20260906211503 82 178 10.4 22.6 0.00 0.00 0.00 9 1013.0
20260906211003 82 175 11.3 26.1 0.00 0.00 0.00 7 1013.0
20260906210505 81 215 7.8 26.1 0.00 0.00 0.00 7 1013.4
20260906210503 82 181 13.9 26.1 0.00 0.00 0.00 7 1013.1
20260906210003 82 192 13.0 25.2 0.00 0.00 0.00 6 1013.5
20260906205524 81 197 13.0 25.2 0.00 0.00 0.00 8 1013.5
20260906205517 81 198 12.2 24.3 0.00 0.00 0.00 8 1013.4
20260906205035 81 213 7.8 24.3 0.00 0.00 0.00 7 1013.5
20260906205003 81 197 12.2 25.2 0.00 0.00 0.00 6 1013.5
20260906204557 81 193 13.0 20.0 0.00 0.00 0.00 7 1013.7
20260906204503 81 195 11.3 26.1 0.00 0.00 0.00 6 1013.3
20260906204003 81 185 12.2 26.1 0.00 0.00 0.00 7 1013.3
20260906203511 81 200 17.4 26.1 0.00 0.00 0.00 8 1013.9
20260906203503 82 181 10.4 25.2 0.00 0.00 0.00 8 1013.3
20260906203031 81 200 10.4 27.8 0.00 0.00 0.00 8 1013.9
20260906203003 81 190 13.0 27.8 0.00 0.00 0.00 8 1013.7
20260906202546 80 183 13.0 27.8 0.00 0.00 0.00 10 1014.1
20260906202503 81 198 14.8 27.8 0.00 0.00 0.00 10 1013.7
20260906202215 80 190 18.2 27.8 0.00 0.00 0.00 10 1014.2
20260906202003 81 199 13.9 27.8 0.00 0.00 0.00 8 1013.7
20260906201524 81 203 13.0 26.9 0.00 0.00 0.00 8 1013.6
20260906201515 81 169 16.5 26.9 0.00 0.00 0.00 8 1014.1
20260906201032 81 194 18.2 26.9 0.00 0.00 0.00 9 1014.1
20260906201003 81 204 10.4 26.9 0.00 0.00 0.00 9 1013.6
20260906200524 81 197 10.4 20.9 0.00 0.00 0.00 10 1013.6
20260906200055 80 215 11.3 22.6 0.00 0.00 0.00 9 1014.0
20260906200003 81 204 13.0 30.4 0.00 0.00 0.00 11 1013.7
20260906195610 80 175 15.6 26.9 0.00 0.00 0.00 9 1013.9
20260906195524 80 204 13.0 30.4 0.00 0.00 0.00 9 1013.7
20260906195020 80 207 20.9 22.6 0.00 0.00 0.00 10 1014.0
20260906195003 81 199 12.2 23.5 0.00 0.00 0.00 10 1013.7
20260906194539 80 205 8.7 21.7 0.00 0.00 0.00 12 1014.1
20260906194503 80 201 14.8 25.2 0.00 0.00 0.00 11 1013.5
20260906194057 80 186 13.9 23.5 0.00 0.00 0.00 9 1014.1
20260906194003 80 200 13.9 25.2 0.00 0.00 0.00 9 1013.5
20260906193506 80 184 22.6 25.2 0.00 0.00 0.00 10 1014.1
20260906193503 81 190 9.6 25.2 0.00 0.00 0.00 10 1013.5
20260906193024 80 163 10.4 18.2 0.00 0.00 0.00 12 1014.0
20260906193003 81 180 8.7 19.1 0.00 0.00 0.00 13 1013.9
20260906192540 80 197 4.3 18.2 0.00 0.00 0.00 12 1014.1
20260906192503 80 169 8.7 19.1 0.00 0.00 0.00 10 1013.9
20260906192026 80 196 15.6 19.1 0.00 0.00 0.00 10 1014.0
20260906192003 80 173 9.6 20.0 0.00 0.00 0.00 10 1014.0
20260906191546 80 199 6.1 19.1 0.00 0.00 0.00 13 1014.3
20260906191503 80 170 11.3 20.0 0.00 0.00 0.00 10 1014.4
20260906191102 80 184 11.3 18.2 0.00 0.00 0.00 12 1014.3
20260906191003 80 172 8.7 18.2 0.00 0.00 0.00 12 1014.4
20260906190513 80 188 5.2 18.2 0.00 0.00 0.00 13 1014.6
20260906190504 80 198 9.6 18.2 0.00 0.00 0.00 13 1014.4
20260906190029 80 195 8.7 18.2 0.00 0.00 0.00 10 1014.7
20260906190003 80 201 9.6 17.4 0.00 0.00 0.00 9 1014.7
20260906185544 79 223 13.0 20.9 0.00 0.00 0.00 11 1014.8
20260906185524 80 195 9.6 21.7 0.00 0.00 0.00 11 1014.7
20260906185106 79 167 12.2 20.9 0.00 0.00 0.00 10 1014.8
20260906185003 80 185 9.6 21.7 0.00 0.00 0.00 9 1014.7
20260906184503 80 179 7.8 16.5 0.00 0.00 0.00 12 1015.0
20260906184003 79 166 8.7 18.2 0.00 0.00 0.00 13 1015.0
20260906183514 79 200 6.1 17.4 0.00 0.00 0.00 13 1015.2
20260906183503 79 165 9.6 18.2 0.00 0.00 0.00 13 1015.0
20260906183033 79 169 10.4 19.1 0.00 0.00 0.00 13 1015.3
20260906183024 79 183 9.6 19.1 0.00 0.00 0.00 13 1014.9
20260906182549 79 160 8.7 19.1 0.00 0.00 0.00 12 1015.3
20260906182503 79 188 9.6 19.1 0.00 0.00 0.00 13 1014.9
20260906182006 79 171 10.4 13.0 0.00 0.00 0.00 14 1015.4
20260906182003 79 181 8.7 16.5 0.00 0.00 0.00 14 1014.9
20260906181525 78 184 10.4 15.6 0.00 0.00 0.00 13 1015.2
20260906181503 79 177 7.8 17.4 0.00 0.00 0.00 15 1015.0
20260906181043 78 152 8.7 14.8 0.00 0.00 0.00 17 1015.3
20260906181003 78 191 7.0 17.4 0.00 0.00 0.00 17 1015.0
20260906180600 77 163 8.7 14.8 0.00 0.00 0.00 19 1015.3
20260906180503 78 237 6.1 13.9 0.00 0.00 0.00 22 1015.0
20260906180012 76 223 11.3 13.9 0.00 0.00 0.00 22 1015.4
20260906180003 77 247 6.1 13.9 0.00 0.00 0.00 22 1015.5
20260906175503 76 250 5.2 9.6 0.00 0.00 0.00 25 1015.5
20260906175034 75 239 4.3 7.8 0.00 0.00 0.00 27 1015.7
20260906175003 76 252 4.3 8.7 0.00 0.00 0.00 25 1015.5
20260906174557 75 263 6.1 7.8 0.00 0.00 0.00 27 1015.7
20260906174524 76 247 4.3 7.8 0.00 0.00 0.00 27 1015.5
20260906174003 75 246 4.3 7.8 0.00 0.00 0.00 28 1015.9
20260906173509 74 255 7.8 7.8 0.00 0.00 0.00 27 1016.1
20260906173503 75 257 4.3 7.8 0.00 0.00 0.00 27 1015.9
20260906173030 74 273 5.2 7.0 0.00 0.00 0.00 28 1016.0
20260906173003 74 270 3.5 7.8 0.00 0.00 0.00 28 1015.9
20260906172546 73 236 1.7 7.8 0.00 0.00 0.00 30 1016.4
20260906172503 74 274 4.3 7.8 0.00 0.00 0.00 29 1016.0
20260906172003 74 271 3.5 7.0 0.00 0.00 0.00 28 1016.0
20260906171555 73 273 3.5 6.1 0.00 0.00 0.00 30 1016.2
20260906171503 73 270 2.6 6.1 0.00 0.00 0.00 30 1016.0
20260906171110 73 251 4.3 5.2 0.00 0.00 0.00 30 1016.4
20260906171003 73 268 2.6 5.2 0.00 0.00 0.00 32 1016.1
20260906170524 72 267 2.6 5.2 0.00 0.00 0.00 31 1016.1
20260906170031 71 273 3.5 5.2 0.00 0.00 0.00 31 1016.4
20260906170003 72 286 2.6 6.1 0.00 0.00 0.00 31 1016.1
20260906165545 71 272 1.7 5.2 0.00 0.00 0.00 32 1016.4
20260906165503 72 294 2.6 6.1 0.00 0.00 0.00 32 1016.3
20260906165104 71 299 2.6 3.5 0.00 0.00 0.00 34 1016.4
20260906165003 71 289 1.7 3.5 0.00 0.00 0.00 33 1016.3
20260906164515 70 289 2.6 3.5 0.00 0.00 0.00 33 1016.5
20260906164503 71 289 1.7 3.5 0.00 0.00 0.00 33 1016.3
20260906164030 70 290 0.9 3.5 0.00 0.00 0.00 32 1016.6
20260906164003 70 291 1.7 3.5 0.00 0.00 0.00 32 1016.3
20260906163550 69 290 0.9 4.3 0.00 0.00 0.00 33 1016.6
20260906163503 70 297 1.7 4.3 0.00 0.00 0.00 34 1016.3
20260906163024 69 295 2.6 4.3 0.00 0.00 0.00 35 1016.3
20260906162600 68 289 0.9 4.3 0.00 0.00 0.00 34 1016.5
20260906162503 69 292 1.7 3.5 0.00 0.00 0.00 36 1016.2
20260906162003 68 302 2.6 6.1 0.00 0.00 0.00 34 1016.3
20260906161506 67 300 1.7 5.2 0.00 0.00 0.00 34 1016.6
20260906161503 68 291 1.7 6.1 0.00 0.00 0.00 34 1016.3
20260906161016 67 273 1.7 3.5 0.00 0.00 0.00 36 1016.5
20260906161003 67 273 0.9 3.5 0.00 0.00 0.00 36 1016.3
20260906160537 66 273 0.9 2.6 0.00 0.00 0.00 37 1016.6
20260906160503 66 273 0.9 2.6 0.00 0.00 0.00 37 1016.3
20260906160058 65 273 0.0 2.6 0.00 0.00 0.00 36 1016.5
20260906160003 65 273 0.9 2.6 0.00 0.00 0.00 37 1016.3
20260906155503 65 270 1.7 6.1 0.00 0.00 0.00 38 1016.6
20260906155022 64 273 1.7 6.1 0.00 0.00 0.00 39 1016.8
20260906155003 64 276 1.7 6.1 0.00 0.00 0.00 39 1016.6
20260906154542 63 273 2.6 6.1 0.00 0.00 0.00 39 1016.7
20260906154503 64 293 1.7 6.1 0.00 0.00 0.00 39 1016.6
20260906154059 62 302 1.7 4.3 0.00 0.00 0.00 41 1016.8
20260906154003 63 302 2.6 4.3 0.00 0.00 0.00 40 1016.4
20260906153508 61 304 2.6 4.3 0.00 0.00 0.00 42 1016.8
20260906153503 62 302 1.7 4.3 0.00 0.00 0.00 42 1016.4
20260906153031 60 292 0.9 3.5 0.00 0.00 0.00 43 1016.7
20260906153003 60 305 1.7 3.5 0.00 0.00 0.00 44 1016.4
20260906152546 59 312 0.0 3.5 0.00 0.00 0.00 45 1016.7
20260906152503 60 305 1.7 3.5 0.00 0.00 0.00 45 1016.5
20260906152024 58 304 1.7 3.5 0.00 0.00 0.00 45 1016.5
20260906151529 58 304 1.7 3.5 0.00 0.00 0.00 46 1016.8
20260906151504 58 304 1.7 3.5 0.00 0.00 0.00 46 1016.5
20260906151003 58 304 1.7 3.5 0.00 0.00 0.00 47 1016.6
20260906150551 57 304 0.9 3.5 0.00 0.00 0.00 47 1016.7
20260906150524 57 306 1.7 3.5 0.00 0.00 0.00 47 1016.6
20260906150005 56 305 1.7 3.5 0.00 0.00 0.00 48 1016.9
20260906150003 57 321 1.7 3.5 0.00 0.00 0.00 48 1016.6
20260906145517 56 334 2.6 3.5 0.00 0.00 0.00 49 1016.9
20260906145503 56 346 1.7 3.5 0.00 0.00 0.00 49 1016.5
20260906145003 56 12 0.9 3.5 0.00 0.00 0.00 49 1016.5
20260906144543 55 26 0.0 2.6 0.00 0.00 0.00 49 1016.8
20260906144503 55 27 0.9 2.6 0.00 0.00 0.00 49 1016.5
20260906144100 54 27 0.9 2.6 0.00 0.00 0.00 49 1016.8
20260906144003 55 29 0.9 2.6 0.00 0.00 0.00 49 1016.5
20260906143507 54 29 1.7 3.5 0.00 0.00 0.00 49 1016.7
20260906143503 54 29 1.7 3.5 0.00 0.00 0.00 49 1016.6
20260906143029 54 30 1.7 3.5 0.00 0.00 0.00 49 1016.8
20260906143003 54 30 1.7 3.5 0.00 0.00 0.00 49 1016.6
20260906142547 53 28 2.6 3.5 0.00 0.00 0.00 48 1016.7
20260906142503 54 36 1.7 3.5 0.00 0.00 0.00 48 1016.6
20260906142214 53 31 2.6 3.5 0.00 0.00 0.00 48 1016.6
20260906142003 53 45 1.7 2.6 0.00 0.00 0.00 47 1016.4
20260906141514 53 46 1.7 2.6 0.00 0.00 0.00 46 1016.6
20260906141503 53 53 0.9 2.6 0.00 0.00 0.00 46 1016.4
20260906141030 53 56 0.9 2.6 0.00 0.00 0.00 45 1016.7
20260906141024 53 66 0.9 2.6 0.00 0.00 0.00 45 1016.4
20260906140551 53 63 0.9 2.6 0.00 0.00 0.00 45 1016.7
20260906140503 53 67 0.9 2.6 0.00 0.00 0.00 45 1016.4
20260906140110 52 65 1.7 1.7 0.00 0.00 0.00 44 1016.6
20260906140024 53 67 0.9 3.5 0.00 0.00 0.00 44 1016.4
20260906135516 52 69 0.0 2.6 0.00 0.00 0.00 44 1016.7
20260906135503 53 70 1.7 3.5 0.00 0.00 0.00 44 1016.4
20260906135033 52 69 1.7 3.5 0.00 0.00 0.00 44 1016.7
20260906135003 52 72 2.6 3.5 0.00 0.00 0.00 44 1016.4
20260906134556 52 71 2.6 3.5 0.00 0.00 0.00 44 1016.7
20260906134503 52 73 2.6 3.5 0.00 0.00 0.00 44 1016.4
20260906134004 52 69 2.6 3.5 0.00 0.00 0.00 44 1016.6
20260906133524 52 87 2.6 3.5 0.00 0.00 0.00 44 1016.4
20260906133029 51 100 2.6 4.3 0.00 0.00 0.00 44 1016.6
20260906133003 52 77 2.6 3.5 0.00 0.00 0.00 44 1016.4
20260906132546 51 67 2.6 4.3 0.00 0.00 0.00 45 1016.6
20260906132504 52 71 2.6 5.2 0.00 0.00 0.00 45 1016.4
20260906132054 51 75 1.7 5.2 0.00 0.00 0.00 45 1016.6
20260906132024 52 72 3.5 7.0 0.00 0.00 0.00 45 1016.2
20260906131505 51 67 2.6 7.8 0.00 0.00 0.00 45 1016.6
20260906131503 52 73 3.5 7.8 0.00 0.00 0.00 45 1016.2
20260906131021 51 88 6.1 7.8 0.00 0.00 0.00 46 1016.5
20260906131003 52 71 2.6 7.0 0.00 0.00 0.00 46 1016.2
20260906130540 51 61 1.7 4.3 0.00 0.00 0.00 46 1016.3
20260906130503 52 72 2.6 4.3 0.00 0.00 0.00 46 1016.1
20260906130100 52 72 3.5 4.3 0.00 0.00 0.00 46 1016.5
20260906130003 52 69 2.6 4.3 0.00 0.00 0.00 46 1016.1
20260906125506 52 75 2.6 4.3 0.00 0.00 0.00 45 1016.5
20260906125503 52 70 2.6 4.3 0.00 0.00 0.00 45 1016.1
20260906125024 52 76 2.6 3.5 0.00 0.00 0.00 45 1016.5
20260906125003 53 76 1.7 3.5 0.00 0.00 0.00 45 1016.1
20260906124545 53 77 1.7 3.5 0.00 0.00 0.00 46 1016.6
20260906124524 53 0 0.0 3.5 0.00 0.00 0.00 46 1016.1
20260906124102 53 90 0.9 0.9 0.00 0.00 0.00 46 1016.4
20260906124024 53 0 0.0 0.0 0.00 0.00 0.00 46 1016.1
20260906123510 53 90 0.0 0.0 0.00 0.00 0.00 46 1016.5
20260906123503 54 0 0.0 0.0 0.00 0.00 0.00 46 1015.8
20260906123031 53 90 0.0 0.9 0.00 0.00 0.00 46 1016.2
20260906123003 54 0 0.0 1.7 0.00 0.00 0.00 46 1015.8
20260906122548 53 90 0.0 1.7 0.00 0.00 0.00 45 1016.2
20260906122503 54 0 0.0 1.7 0.00 0.00 0.00 45 1015.8
20260906122024 54 0 0.0 1.7 0.00 0.00 0.00 44 1015.8
20260906122012 54 90 0.9 1.7 0.00 0.00 0.00 44 1016.1
20260906121533 54 90 0.0 3.5 0.00 0.00 0.00 44 1016.2
20260906121524 54 87 1.7 3.5 0.00 0.00 0.00 44 1015.8
20260906121050 54 90 0.9 5.2 0.00 0.00 0.00 44 1016.0
20260906121024 55 84 2.6 6.1 0.00 0.00 0.00 44 1015.8
20260906120503 54 82 3.5 6.1 0.00 0.00 0.00 43 1015.9
20260906120024 54 82 3.5 6.1 0.00 0.00 0.00 43 1015.9
20260906120018 54 89 3.5 5.2 0.00 0.00 0.00 43 1016.0
20260906115524 54 83 3.5 7.0 0.00 0.00 0.00 44 1015.7
20260906115507 54 76 0.9 5.2 0.00 0.00 0.00 44 1016.0
20260906115021 54 87 4.3 7.0 0.00 0.00 0.00 44 1016.1
20260906115003 54 81 4.3 7.0 0.00 0.00 0.00 44 1015.7
20260906114542 54 67 4.3 7.0 0.00 0.00 0.00 43 1016.0
20260906114503 54 76 3.5 7.0 0.00 0.00 0.00 43 1015.7
20260906114100 54 75 4.3 7.0 0.00 0.00 0.00 43 1016.0
20260906114003 54 74 3.5 6.1 0.00 0.00 0.00 43 1015.7
20260906113507 54 73 3.5 4.3 0.00 0.00 0.00 43 1016.1
20260906113503 55 75 2.6 4.3 0.00 0.00 0.00 43 1015.8
20260906113030 54 74 3.5 4.3 0.00 0.00 0.00 42 1015.9
20260906113003 55 78 2.6 4.3 0.00 0.00 0.00 42 1015.8
20260906112546 55 74 1.7 4.3 0.00 0.00 0.00 42 1016.1
20260906112503 55 78 2.6 4.3 0.00 0.00 0.00 42 1015.8
20260906112003 55 83 1.7 4.3 0.00 0.00 0.00 42 1015.7
20260906111537 55 78 2.6 3.5 0.00 0.00 0.00 42 1016.1
20260906111524 56 95 0.9 3.5 0.00 0.00 0.00 42 1015.7
20260906111053 55 97 0.0 1.7 0.00 0.00 0.00 42 1016.1
20260906111003 56 97 0.9 1.7 0.00 0.00 0.00 42 1015.7
20260906110524 56 97 0.9 1.7 0.00 0.00 0.00 42 1015.7
20260906110007 55 97 0.9 2.6 0.00 0.00 0.00 42 1016.1
20260906110003 56 91 1.7 2.6 0.00 0.00 0.00 42 1015.6
20260906105519 55 88 1.7 3.5 0.00 0.00 0.00 41 1016.0
20260906105503 56 84 1.7 3.5 0.00 0.00 0.00 41 1015.6
20260906105003 56 87 1.7 4.3 0.00 0.00 0.00 41 1015.6
20260906104542 56 85 1.7 4.3 0.00 0.00 0.00 41 1015.7
20260906104503 57 103 1.7 4.3 0.00 0.00 0.00 41 1015.6
20260906104101 56 119 1.7 2.6 0.00 0.00 0.00 43 1015.9
20260906104024 57 135 0.9 2.6 0.00 0.00 0.00 43 1015.6
20260906103525 57 145 0.9 3.5 0.00 0.00 0.00 43 1015.6
20260906103509 57 147 1.7 5.2 0.00 0.00 0.00 43 1015.9
20260906103029 56 147 1.7 5.2 0.00 0.00 0.00 43 1015.9
20260906103003 57 158 2.6 5.2 0.00 0.00 0.00 43 1015.5
20260906102545 56 148 2.6 5.2 0.00 0.00 0.00 44 1015.8
20260906102524 56 154 3.5 6.1 0.00 0.00 0.00 44 1015.5
20260906102029 55 163 4.3 6.1 0.00 0.00 0.00 44 1015.8
20260906102024 56 131 3.5 6.1 0.00 0.00 0.00 44 1015.4
20260906101548 55 121 6.1 6.1 0.00 0.00 0.00 45 1015.7
20260906101503 55 115 3.5 6.1 0.00 0.00 0.00 45 1015.3
20260906101044 55 119 4.3 6.1 0.00 0.00 0.00 44 1015.5
20260906101003 55 97 3.5 7.0 0.00 0.00 0.00 44 1015.2
20260906100604 55 117 2.6 8.7 0.00 0.00 0.00 44 1015.6
20260906100503 55 81 4.3 8.7 0.00 0.00 0.00 44 1015.2
20260906100010 55 40 5.2 8.7 0.00 0.00 0.00 43 1015.6
20260906100003 56 75 5.2 8.7 0.00 0.00 0.00 43 1015.3
20260906095523 55 84 6.1 8.7 0.00 0.00 0.00 43 1015.7
20260906095503 56 71 5.2 8.7 0.00 0.00 0.00 43 1015.3
20260906095003 56 75 4.3 7.8 0.00 0.00 0.00 42 1015.4
20260906094544 57 83 4.3 5.2 0.00 0.00 0.00 42 1015.7
20260906094503 57 91 2.6 6.1 0.00 0.00 0.00 42 1015.2
20260906094102 57 121 3.5 3.5 0.00 0.00 0.00 42 1015.5
20260906094003 58 121 0.9 2.6 0.00 0.00 0.00 42 1015.2
20260906093512 57 224 0.0 3.5 0.00 0.00 0.00 42 1015.5
20260906093503 58 207 0.9 3.5 0.00 0.00 0.00 42 1015.2
20260906093030 58 224 0.0 3.5 0.00 0.00 0.00 41 1015.5
20260906093024 58 205 0.9 3.5 0.00 0.00 0.00 41 1015.3
20260906092548 58 172 0.0 1.7 0.00 0.00 0.00 41 1015.4
20260906092503 58 0 0.0 3.5 0.00 0.00 0.00 41 1015.3
20260906092027 58 172 0.0 2.6 0.00 0.00 0.00 40 1015.4
20260906092003 58 0 0.0 3.5 0.00 0.00 0.00 40 1015.3
20260906091503 58 0 0.0 1.7 0.00 0.00 0.00 39 1015.3
20260906091050 58 34 0.0 1.7 0.00 0.00 0.00 39 1015.6
20260906091003 59 0 0.0 1.7 0.00 0.00 0.00 39 1015.1
20260906090503 59 0 0.0 1.7 0.00 0.00 0.00 39 1015.1
20260906090018 58 36 0.9 3.5 0.00 0.00 0.00 39 1015.6
20260906090003 59 0 0.0 3.5 0.00 0.00 0.00 39 1015.1
20260906085533 58 55 0.0 3.5 0.00 0.00 0.00 39 1015.4
20260906085524 59 59 0.9 3.5 0.00 0.00 0.00 39 1014.9
20260906085051 58 100 0.0 4.3 0.00 0.00 0.00 39 1015.2
20260906085003 59 10 1.7 4.3 0.00 0.00 0.00 38 1014.9
20260906084507 58 51 2.6 4.3 0.00 0.00 0.00 39 1015.2
20260906084503 59 2 1.7 4.3 0.00 0.00 0.00 39 1014.9
20260906084126 58 340 3.5 4.3 0.00 0.00 0.00 39 1015.1
20260906084003 59 20 2.6 5.2 0.00 0.00 0.00 39 1014.6
20260906083510 58 13 2.6 5.2 0.00 0.00 0.00 39 1015.0
20260906083503 59 19 2.6 5.2 0.00 0.00 0.00 39 1014.6
20260906083030 58 26 5.2 5.2 0.00 0.00 0.00 38 1015.1
20260906083003 59 22 2.6 4.3 0.00 0.00 0.00 38 1014.6
20260906082545 59 34 0.9 5.2 0.00 0.00 0.00 38 1015.1
20260906082503 59 25 2.6 6.1 0.00 0.00 0.00 38 1014.5
20260906082041 59 27 0.9 5.2 0.00 0.00 0.00 38 1014.9
20260906082024 59 24 3.5 6.1 0.00 0.00 0.00 38 1014.6
20260906081600 59 26 4.3 5.2 0.00 0.00 0.00 38 1014.9
20260906081524 60 22 3.5 6.1 0.00 0.00 0.00 37 1014.6
20260906081007 59 32 1.7 7.0 0.00 0.00 0.00 37 1014.9
20260906081003 60 18 4.3 7.0 0.00 0.00 0.00 37 1014.5
20260906080503 59 21 4.3 7.0 0.00 0.00 0.00 36 1014.5
20260906080032 59 5 3.5 5.2 0.00 0.00 0.00 35 1014.7
20260906080003 60 35 2.6 6.1 0.00 0.00 0.00 35 1014.5
20260906075546 59 31 3.5 3.5 0.00 0.00 0.00 35 1014.7
20260906075503 60 52 1.7 3.5 0.00 0.00 0.00 35 1014.4
20260906075004 60 44 0.9 3.5 0.00 0.00 0.00 34 1014.4
20260906074612 60 54 0.0 1.7 0.00 0.00 0.00 33 1014.9
20260906074524 60 24 0.9 1.7 0.00 0.00 0.00 34 1014.4
20260906074012 60 18 1.7 4.3 0.00 0.00 0.00 33 1014.8
20260906074003 60 35 0.9 4.3 0.00 0.00 0.00 33 1014.2
20260906073531 60 28 0.0 4.3 0.00 0.00 0.00 34 1014.7
20260906073503 60 51 0.9 4.3 0.00 0.00 0.00 34 1014.2
20260906073052 60 65 0.0 3.5 0.00 0.00 0.00 34 1014.7
20260906073003 60 47 1.7 3.5 0.00 0.00 0.00 34 1014.2
20260906072503 60 23 3.5 7.0 0.00 0.00 0.00 35 1014.1
20260906072022 60 39 0.9 7.8 0.00 0.00 0.00 34 1014.5
20260906072003 60 350 4.3 7.8 0.00 0.00 0.00 34 1014.0
20260906071542 60 355 5.2 7.8 0.00 0.00 0.00 32 1014.4
20260906071503 61 320 3.5 7.8 0.00 0.00 0.00 32 1014.0
20260906071058 61 344 7.0 7.0 0.00 0.00 0.00 30 1014.4
20260906071003 61 306 1.7 5.2 0.00 0.00 0.00 29 1014.0
20260906070503 62 35 1.7 2.6 0.00 0.00 0.00 28 1013.8
20260906070024 62 30 1.7 2.6 0.00 0.00 0.00 26 1013.9
20260906065504 62 13 2.6 3.5 0.00 0.00 0.00 25 1014.0
20260906065021 62 17 0.9 3.5 0.00 0.00 0.00 25 1014.2
20260906065003 63 24 1.7 4.3 0.00 0.00 0.00 25 1013.9
20260906064544 63 20 0.9 7.8 0.00 0.00 0.00 23 1014.4
20260906064503 64 332 2.6 7.8 0.00 0.00 0.00 23 1013.9
20260906064102 64 350 2.6 7.8 0.00 0.00 0.00 23 1014.4
20260906064003 64 321 3.5 7.8 0.00 0.00 0.00 22 1013.9
20260906063509 65 319 2.6 7.0 0.00 0.00 0.00 21 1014.2
20260906063503 65 317 2.6 7.0 0.00 0.00 0.00 21 1013.9
20260906063031 66 310 3.5 7.0 0.00 0.00 0.00 20 1014.3
20260906063003 66 230 3.5 7.0 0.00 0.00 0.00 19 1013.9
20260906062548 66 316 2.6 7.0 0.00 0.00 0.00 19 1014.3
20260906062503 67 174 3.5 6.1 0.00 0.00 0.00 19 1013.9
20260906062026 66 186 2.6 8.7 0.00 0.00 0.00 20 1014.1
20260906062003 67 158 4.3 9.6 0.00 0.00 0.00 20 1013.7
20260906061503 67 119 7.8 14.8 0.00 0.00 0.00 20 1013.7
20260906061024 66 99 10.4 14.8 0.00 0.00 0.00 20 1013.7
20260906060557 64 67 12.2 15.6 0.00 0.00 0.00 21 1014.0
20260906060524 65 94 11.3 15.6 0.00 0.00 0.00 22 1013.8
20260906060117 63 108 9.6 15.6 0.00 0.00 0.00 23 1014.1
20260906060004 63 93 11.3 15.6 0.00 0.00 0.00 24 1013.8
20260906055517 62 91 7.0 15.6 0.00 0.00 0.00 26 1014.1
20260906055503 62 92 12.2 15.6 0.00 0.00 0.00 26 1013.8
20260906055003 61 94 12.2 15.6 0.00 0.00 0.00 30 1013.6
20260906054541 60 102 10.4 15.6 0.00 0.00 0.00 32 1014.0
20260906054503 60 96 12.2 17.4 0.00 0.00 0.00 35 1013.6
20260906054059 59 85 14.8 17.4 0.00 0.00 0.00 34 1013.9
20260906054024 59 96 12.2 17.4 0.00 0.00 0.00 36 1013.6
20260906053508 57 101 10.4 15.6 0.00 0.00 0.00 42 1014.0
20260906053503 58 93 12.2 15.6 0.00 0.00 0.00 42 1013.9
20260906053030 57 97 12.2 16.5 0.00 0.00 0.00 45 1014.0
20260906053003 58 91 11.3 16.5 0.00 0.00 0.00 45 1013.9
20260906052546 58 77 13.0 16.5 0.00 0.00 0.00 45 1014.0
20260906052503 59 90 11.3 16.5 0.00 0.00 0.00 45 1013.9
20260906052019 60 134 9.6 16.5 0.00 0.00 0.00 42 1014.2
20260906052003 60 96 11.3 16.5 0.00 0.00 0.00 42 1013.9
20260906051539 61 115 10.4 16.5 0.00 0.00 0.00 38 1014.4
20260906051524 62 98 12.2 16.5 0.00 0.00 0.00 38 1013.9
20260906051056 63 101 12.2 15.6 0.00 0.00 0.00 35 1014.3
20260906051003 64 95 12.2 17.4 0.00 0.00 0.00 35 1013.9
20260906050506 67 102 13.9 17.4 0.00 0.00 0.00 30 1014.3
20260906050503 67 96 11.3 17.4 0.00 0.00 0.00 30 1014.1
20260906050027 69 86 12.2 14.8 0.00 0.00 0.00 16 1014.3
20260906050003 70 95 11.3 13.9 0.00 0.00 0.00 16 1014.1
20260906045543 69 90 11.3 13.9 0.00 0.00 0.00 16 1014.3
20260906045503 70 95 11.3 14.8 0.00 0.00 0.00 16 1014.1
20260906045102 69 102 10.4 15.6 0.00 0.00 0.00 17 1014.6
20260906045003 70 95 11.3 15.6 0.00 0.00 0.00 16 1014.1
20260906044503 70 92 11.3 15.6 0.00 0.00 0.00 16 1014.2
20260906044024 70 89 11.3 14.8 0.00 0.00 0.00 16 1014.2
20260906043510 70 83 11.3 14.8 0.00 0.00 0.00 16 1014.6
20260906043503 71 92 10.4 14.8 0.00 0.00 0.00 16 1014.5
20260906043032 71 95 9.6 13.0 0.00 0.00 0.00 14 1014.7
20260906043003 71 96 10.4 13.9 0.00 0.00 0.00 14 1014.5
20260906042549 71 90 11.3 13.9 0.00 0.00 0.00 14 1014.7
20260906042524 71 92 9.6 13.9 0.00 0.00 0.00 14 1014.5
20260906042004 71 76 10.4 13.9 0.00 0.00 0.00 14 1014.7
20260906041524 71 99 8.7 14.8 0.00 0.00 0.00 13 1014.8
20260906041503 71 95 10.4 14.8 0.00 0.00 0.00 13 1014.4
20260906041040 71 88 10.4 14.8 0.00 0.00 0.00 14 1014.7
20260906041003 71 94 10.4 14.8 0.00 0.00 0.00 13 1014.4
20260906040603 71 98 13.9 13.9 0.00 0.00 0.00 13 1014.9
20260906040524 71 93 11.3 13.9 0.00 0.00 0.00 13 1014.4
20260906040012 71 88 10.4 13.9 0.00 0.00 0.00 14 1014.9
20260906040003 71 94 10.4 13.9 0.00 0.00 0.00 14 1014.8
20260906035503 71 93 10.4 13.9 0.00 0.00 0.00 14 1014.8
20260906035033 71 91 12.2 13.0 0.00 0.00 0.00 13 1015.2
20260906035003 71 92 9.6 13.0 0.00 0.00 0.00 13 1014.8
20260906034555 70 85 9.6 13.0 0.00 0.00 0.00 13 1014.9
20260906034503 71 90 9.6 13.0 0.00 0.00 0.00 13 1014.8
20260906034006 70 84 8.7 13.0 0.00 0.00 0.00 13 1015.0
20260906034003 71 89 9.6 13.0 0.00 0.00 0.00 13 1014.8
20260906033524 71 89 8.7 13.0 0.00 0.00 0.00 13 1014.8
20260906033521 71 94 8.7 13.0 0.00 0.00 0.00 13 1015.1
20260906033044 72 88 8.7 13.0 0.00 0.00 0.00 12 1015.2
20260906033003 72 92 7.8 13.0 0.00 0.00 0.00 12 1014.8
20260906032503 73 97 7.0 9.6 0.00 0.00 0.00 12 1014.8
20260906032216 72 110 8.7 8.7 0.00 0.00 0.00 12 1015.2
20260906032024 73 105 6.1 8.7 0.00 0.00 0.00 12 1014.8
20260906031517 73 95 7.0 7.8 0.00 0.00 0.00 11 1015.1
20260906031503 73 112 5.2 7.8 0.00 0.00 0.00 11 1014.9
20260906031003 73 113 5.2 7.8 0.00 0.00 0.00 12 1014.9
20260906030543 73 107 6.1 7.8 0.00 0.00 0.00 12 1015.2
20260906030503 73 118 5.2 7.8 0.00 0.00 0.00 12 1014.9
20260906030003 73 122 4.3 7.8 0.00 0.00 0.00 12 1014.8
20260906025509 73 152 6.1 7.0 0.00 0.00 0.00 12 1015.1
20260906025503 73 129 4.3 7.0 0.00 0.00 0.00 12 1014.8
20260906025024 73 133 4.3 7.0 0.00 0.00 0.00 12 1014.8
20260906024537 73 94 2.6 7.0 0.00 0.00 0.00 12 1015.1
20260906024524 74 132 4.3 7.0 0.00 0.00 0.00 12 1014.8
20260906024055 73 118 2.6 7.0 0.00 0.00 0.00 12 1015.0
20260906024024 74 127 4.3 7.0 0.00 0.00 0.00 12 1014.8
20260906023505 73 127 2.6 7.8 0.00 0.00 0.00 11 1014.9
20260906023503 74 127 4.3 7.8 0.00 0.00 0.00 11 1014.8
20260906023025 74 128 2.6 7.8 0.00 0.00 0.00 11 1015.0
20260906023003 74 128 4.3 7.8 0.00 0.00 0.00 11 1014.6
20260906022540 74 120 4.3 7.8 0.00 0.00 0.00 11 1014.9
20260906022503 74 128 4.3 7.8 0.00 0.00 0.00 11 1014.6
20260906022017 74 115 2.6 7.8 0.00 0.00 0.00 11 1015.0
20260906022003 75 131 5.2 7.8 0.00 0.00 0.00 11 1014.7
20260906021537 74 105 5.2 7.8 0.00 0.00 0.00 10 1014.9
20260906021524 75 132 5.2 7.8 0.00 0.00 0.00 10 1014.6
20260906021054 75 131 4.3 7.8 0.00 0.00 0.00 10 1014.9
20260906021003 75 132 5.2 7.8 0.00 0.00 0.00 10 1014.6
20260906020505 75 154 2.6 7.8 0.00 0.00 0.00 10 1015.1
20260906020503 76 135 4.3 7.8 0.00 0.00 0.00 10 1014.6
20260906020028 76 165 3.5 7.8 0.00 0.00 0.00 9 1014.9
20260906020024 76 139 4.3 7.8 0.00 0.00 0.00 9 1014.5
20260906015543 76 140 4.3 7.8 0.00 0.00 0.00 9 1015.0
20260906015503 77 158 5.2 8.7 0.00 0.00 0.00 9 1014.5
20260906015024 77 172 6.1 13.0 0.00 0.00 0.00 9 1014.7
20260906015016 77 138 2.6 13.0 0.00 0.00 0.00 9 1015.0
20260906014540 77 161 7.0 13.0 0.00 0.00 0.00 9 1015.0
20260906014503 78 177 6.1 13.0 0.00 0.00 0.00 9 1014.9
20260906014057 78 175 8.7 12.2 0.00 0.00 0.00 9 1014.9
20260906014003 78 176 6.1 12.2 0.00 0.00 0.00 9 1014.9
20260906013507 78 172 4.3 12.2 0.00 0.00 0.00 8 1014.9
20260906013503 79 177 6.1 13.0 0.00 0.00 0.00 8 1014.9
20260906013027 79 194 5.2 12.2 0.00 0.00 0.00 8 1015.2
20260906013003 79 183 5.2 13.0 0.00 0.00 0.00 8 1014.7
20260906012546 79 195 3.5 8.7 0.00 0.00 0.00 8 1015.1
20260906012503 80 196 5.2 13.0 0.00 0.00 0.00 8 1014.7
20260906012053 80 170 3.5 13.0 0.00 0.00 0.00 8 1015.1
20260906012003 80 196 7.8 12.2 0.00 0.00 0.00 8 1014.9
20260906011613 80 207 6.1 13.9 0.00 0.00 0.00 7 1015.2
20260906011503 80 196 7.8 13.9 0.00 0.00 0.00 8 1014.9
20260906011013 80 208 7.8 13.9 0.00 0.00 0.00 7 1015.0
20260906011003 80 199 7.0 13.9 0.00 0.00 0.00 7 1014.8
20260906010503 81 204 6.1 11.3 0.00 0.00 0.00 9 1014.8
20260906010042 81 203 6.1 11.3 0.00 0.00 0.00 8 1014.9
20260906010003 81 204 7.0 11.3 0.00 0.00 0.00 8 1014.8
20260906005557 81 191 11.3 11.3 0.00 0.00 0.00 7 1015.2
20260906005503 81 197 7.0 11.3 0.00 0.00 0.00 7 1014.8
20260906005006 81 173 5.2 11.3 0.00 0.00 0.00 6 1015.2
20260906005003 81 192 6.1 11.3 0.00 0.00 0.00 6 1014.8
20260906004503 82 196 7.0 14.8 0.00 0.00 0.00 7 1014.8
20260906004019 81 182 1.7 15.6 0.00 0.00 0.00 8 1015.1
20260906004003 81 211 8.7 15.6 0.00 0.00 0.00 7 1014.8
20260906003503 82 212 8.7 16.5 0.00 0.00 0.00 8 1014.8
20260906003003 82 201 7.0 16.5 0.00 0.00 0.00 7 1014.8
20260906002546 82 197 8.7 10.4 0.00 0.00 0.00 7 1015.1
20260906002503 82 197 5.2 9.6 0.00 0.00 0.00 8 1014.6
20260906002003 83 189 6.1 11.3 0.00 0.00 0.00 9 1014.5
20260906001552 82 225 4.3 11.3 0.00 0.00 0.00 10 1015.1
20260906001503 82 187 7.0 13.9 0.00 0.00 0.00 9 1014.5
20260906001003 82 202 2.6 17.4 0.00 0.00 0.00 8 1014.7
20260906000520 82 139 6.1 17.4 0.00 0.00 0.00 7 1014.9
20260906000503 82 214 7.0 17.4 0.00 0.00 0.00 8 1014.6
20260906000003 82 201 6.1 12.2 0.00 0.00 0.00 9 1014.6
20260905235532 82 159 4.3 12.2 0.00 0.00 0.00 9 1014.8
20260905235503 82 189 7.0 12.2 0.00 0.00 0.00 9 1014.6
20260905235053 82 202 11.3 17.4 0.00 0.00 0.00 9 1015.0
20260905235024 82 197 7.8 17.4 0.00 0.00 0.00 8 1014.6
20260905234613 82 223 7.8 17.4 0.00 0.00 0.00 8 1015.0